sat.trackr.live / text

‹ back to catalog

COSMOS 2468 (RODNIK-S 3)

NORAD 37154 · 2010-043C

PAYLOAD ACTIVE UNKNOWN

§ Identity

Operator
Country
CIS
Launch date
2010-09-08
Launch site
PLMSC
Launch vehicle
Mass (kg)
RCS (m²)
1.45

External: N2YO · Heavens-Above · Gunter

§ Orbital elements

Epoch: 2026-09-19T14:05:49.428960Z

Period
115.78 min
Inclination
82.4666°
Eccentricity
0.0015662
Mean motion
12.43749704 rev/d
Perigee alt
1,478.4 km
Apogee alt
1,503.1 km
Semi-major
7,868.9 km
B*
7.0796e-5
RAAN
3.1206°
Arg perigee
103.2699°
Mean anomaly
267.9466°
Rev number
72,761

§ Raw data

COSMOS 2468 (RODNIK-S 3)1 37154U 10043C   26262.58737765  .00000020  00000+0  70796-4 0  99982 37154  82.4666   3.1206 0015662 103.2699 267.9466 12.43749704727610

JSON: /api/v1/satellites/37154 · /tle

For live sub-satellite position, see the globe view (requires WebGL).

§ Visibility from observer

Set your observer location to see the next 7 days of passes ≥ 10°. The values pass through the URL so the page stays shareable.

No JS? Fill the form by hand. The geolocation button needs JavaScript.